BEIDOU-3 M22

Last updated on Thu Nov 21 2024 00:02:31 GMT+0000 (Coordinated Universal Time)

1 44793U 19078A 24325.08192275 -.00000077 00000+0 00000+0 0 9995 2 44793 54.4424 319.9411 0005317 10.8046 349.2104 1.86232038 33962
UTC large
Height (km)
Speed (km/s)
/
Latitude / Longitude
Inclination (degrees)
Orbital Period (minutes)
Azimuth
Elevation
Range (km)
Doppler Factor

Next 0 passes for location: London (51.5072 / 0.1276)

Sorry there are no passes over London.